FENGYUN 1C DEB

Satellite information

Favourite Embed

Satellite Type and Status

DEBRISIN ORBIT

Key statistics

Satellite FENGYUN 1C DEB at a glance.

Uptime

9715

Days in orbit

Revolutions

≈ 15.0

Per day

Orbit

SSO

Sun Synchronous Orbit

Inclination

98.7

Latest

Satellite identification and parameters

Extended collection of information and parameters for FENGYUN 1C DEB.

Object identification

Identified? True

Debris? True

Object name: FENGYUN 1C DEB

International designator: 1999-025EJQ

Object number (NORAD): 37470

Object ID (CCSDS): 37470

Country: PEOPLES REPUBLIC OF CHINA (PRC)

Current information (Y/N): Y

RCS size: SMALL

Orbital parameters

Period: 96.061 minutes

Inclination: 98.6674 deg

SMA: 6947.989 km

Apoapsis: 573.578 km

Periapsis: 566.13 km

RAAN: 118.5972 deg

Eccentricy: 0.00053598

Argument of periapsis: 185.6749 deg

Mean anomaly: 174.4411 deg

Mean motion: 14.99042865 rev/day

Mean motion (dot): 0.00077884 rev/day2

B* drag term: 0.0063565181 1/REarth

Two-line elements (TLE)

Creation date: Dec. 3, 2025, 2:22 a.m.

Reference frame: TEME

Reference center: EARTH

Epoch: Dec. 2, 2025, 8:43 a.m. UTC

TLE line 0: 0 FENGYUN 1C DEB

TLE line 1: 1 37470U 99025EJQ 25336.36349669 .00077884 00000-0 63565-2 0 9992

TLE line 2: 2 37470 98.6674 118.5972 0005360 185.6749 174.4411 14.99042865653060

Live tracking on map

Real-time ground track for satellite FENGYUN 1C DEB.

In-orbit conjunctions

A list of the most updated potential collisions computed for object FENGYUN 1C DEB.

Target Orbit TCA Probability of collision Miss distance Type
COSMOS 2084 LEO 2025-11-29 19:13:50 0.0001133641 910.0 (m) PAYLOAD
THOR BURNER 2 R/B SSO 2024-10-20 00:11:18 0.000142045 154.0 (m) ROCKET BODY

Associated space launch

Chinese polar orbiting meteorological satellite

FENGYUN 1C DEB was lifted into orbit during the mission ‘Long March 4B | Feng Yun 1C’, on board a Long March 4B space rocket.

The launch took place on May 10, 1999, 1:33 a.m. from Launch Complex 7.

For more information about the launch, click the button.

Launch to space Long March 4B | Feng Yun 1C
Long March 4B | Feng Yun 1C

Agency: N/A

Status: Launch Successful

Launch date: May 10, 1999, 1:33 a.m. UTC

Rocket: Long March 4B

Launch pad: Launch Complex 7

Location: Taiyuan Satellite Launch Center, People's Republic of China

...

Latest news about this satellite

There are no fresh news available about this satellite. Check back as we update our databases every day.


Newsletter sign-up

Weekly statistics, charts and insights to help you stay on top of the space industry.